Weather History for KOGA - March, 2012

Change the Weather History Date:

Monday, March 19, 2012

  Actual Average Record
Temperature  
Mean Temperature 50 °F -  
Max Temperature 62 °F 52 °F 86 °F (2004)
Min Temperature 39 °F 25 °F -7 °F (1965)
Degree Days  
Heating Degree Days 14    
Moisture  
Dew Point 16 °F    
Average Humidity 27    
Maximum Humidity 74    
Minimum Humidity 12    
Precipitation  
Precipitation 0.00 in - - ()
Sea Level Pressure  
Sea Level Pressure 29.51 in    
Wind  
Wind Speed 12 mph (WNW)    
Max Wind Speed 26 mph    
Max Gust Speed 36 mph    
Visibility 10 miles    
Events      
Averages and records for this station are not official NWS values.
T = Trace of Precipitation, MM = Missing Value Source: NWS Daily Summary

Daily Weather History Graph

Daily Weather History Graph

Search for Another Location

Airport or City:

Trip Planner

Search our weather history database for the weather conditions in past years. The results will help you decide how hot, cold, wet, or windy it might be!

Date:

Astronomy

Mar. 19, 2012 Rise Set
Actual Time 6:51 AM MDT 6:58 PM MDT
Civil Twilight 6:23 AM MDT 7:26 PM MDT
Nautical Twilight 5:51 AM MDT 7:58 PM MDT
Astronomical Twilight 5:18 AM MDT 8:31 PM MDT
Moon 5:05 AM MDT (3/19) 4:27 PM MDT (3/19)
Length of Visible Light 13h 02m
Length of Day
12h 07m
Waning Crescent, 8% of the Moon is Illuminated
Mar 19
Waning Crescent
Mar 22
New
Mar 30
First Quarter
Apr 6
Full
Apr 13
Last Quarter

Hourly Weather History & Observations

Time (MDT) Temp. Windchill Dew Point Humidity Pressure Visibility Wind Dir Wind Speed Gust Speed Precip Events Conditions
12:15 AM 62.8 °F - 54.5 °F 74% 29.44 in 10.0 mi South 26.5 mph 35.7 mph N/A   Overcast
12:55 AM 62.1 °F - 51.3 °F 68% 29.44 in 10.0 mi SSW 20.7 mph 31.1 mph N/A   Overcast
1:35 AM 58.3 °F - 30.0 °F 34% 29.43 in 10.0 mi SSW 12.7 mph 19.6 mph N/A   Overcast
1:55 AM 56.7 °F - 27.3 °F 33% 29.46 in 10.0 mi SSW 13.8 mph 19.6 mph N/A   Overcast
2:15 AM 55.0 °F - 26.8 °F 34% 29.46 in 10.0 mi SSW 12.7 mph - N/A   Overcast
2:35 AM 54.5 °F - 25.5 °F 33% 29.46 in 10.0 mi SW 13.8 mph 17.3 mph N/A   Overcast
3:15 AM 53.6 °F - 21.2 °F 28% 29.46 in 10.0 mi SW 12.7 mph 19.6 mph N/A   Clear
3:35 AM 52.9 °F - 20.5 °F 28% 29.47 in 10.0 mi SW 11.5 mph 21.9 mph N/A   Clear
3:55 AM 52.5 °F - 19.4 °F 27% 29.49 in 10.0 mi SSW 11.5 mph 17.3 mph N/A   Scattered Clouds
4:15 AM 51.8 °F - 19.2 °F 28% 29.48 in 10.0 mi SW 10.4 mph 17.3 mph N/A   Scattered Clouds
4:35 AM 50.7 °F - 19.2 °F 29% 29.51 in 10.0 mi South 8.1 mph - N/A   Mostly Cloudy
4:55 AM 49.6 °F - 19.8 °F 31% 29.51 in 10.0 mi South 9.2 mph - N/A   Scattered Clouds
5:15 AM 49.1 °F - 19.4 °F 31% 29.51 in 10.0 mi SSW 6.9 mph - N/A   Clear
5:35 AM 48.7 °F - 18.9 °F 31% 29.52 in 10.0 mi SW 5.8 mph - N/A   Clear
6:15 AM 46.2 °F 41.7 °F 18.5 °F 33% 29.53 in 10.0 mi West 9.2 mph - N/A   Clear
6:35 AM 43.9 °F 41.3 °F 19.0 °F 37% 29.53 in 10.0 mi West 4.6 mph - N/A   Clear
6:55 AM 41.0 °F 38.0 °F 20.1 °F 43% 29.53 in 10.0 mi West 4.6 mph - N/A   Clear
7:15 AM 39.6 °F 34.7 °F 20.3 °F 46% 29.52 in 10.0 mi West 6.9 mph - N/A   Clear
7:35 AM 39.4 °F 36.1 °F 21.0 °F 48% 29.53 in 10.0 mi West 4.6 mph - N/A   Clear
7:55 AM 41.0 °F 37.1 °F 21.0 °F 45% 29.53 in 10.0 mi WSW 5.8 mph - N/A   Clear
8:15 AM 43.0 °F 41.3 °F 21.7 °F 43% 29.53 in 10.0 mi West 3.5 mph - N/A   Clear
8:55 AM 47.1 °F - 23.4 °F 39% 29.54 in 10.0 mi WSW 6.9 mph - N/A   Mostly Cloudy
9:15 AM 51.6 °F - 21.6 °F 31% 29.53 in 10.0 mi NW 10.4 mph - N/A   Scattered Clouds
9:35 AM 54.0 °F - 19.8 °F 26% 29.53 in 10.0 mi NW 11.5 mph - N/A   Clear
9:55 AM 54.5 °F - 19.6 °F 26% 29.54 in 10.0 mi NW 10.4 mph - N/A   Clear
10:15 AM 54.5 °F - 18.1 °F 24% 29.54 in 10.0 mi NNW 11.5 mph - N/A   Mostly Cloudy
10:35 AM 54.9 °F - 11.5 °F 18% 29.55 in 10.0 mi NW 11.5 mph - N/A   Overcast
10:55 AM 55.0 °F - 10.8 °F 17% 29.55 in 10.0 mi NW 11.5 mph - N/A   Overcast
11:15 AM 55.2 °F - 6.3 °F 14% 29.56 in 10.0 mi NW 8.1 mph - N/A   Overcast
11:35 AM 55.4 °F - 5.9 °F 14% 29.54 in 10.0 mi NW 11.5 mph - N/A   Overcast
12:15 PM 57.4 °F - 9.5 °F 15% 29.52 in 10.0 mi NNW 11.5 mph - N/A   Overcast
12:35 PM 57.7 °F - 6.6 °F 13% 29.51 in 10.0 mi North 6.9 mph - N/A   Mostly Cloudy
12:55 PM 57.2 °F - 6.8 °F 13% 29.52 in 10.0 mi NNW 4.6 mph - N/A   Clear
1:35 PM 59.0 °F - 8.1 °F 13% 29.51 in 10.0 mi NNW 4.6 mph - N/A   Clear
3:15 PM 60.8 °F - 6.4 °F 12% 29.49 in 10.0 mi SW 4.6 mph - N/A   Clear
3:55 PM 60.6 °F - 7.0 °F 12% 29.49 in 10.0 mi West 4.6 mph - N/A   Clear
4:35 PM 60.3 °F - 6.8 °F 12% 29.49 in 10.0 mi SE 3.5 mph - N/A   Clear
4:55 PM 60.8 °F - 7.3 °F 12% 29.49 in 10.0 mi West 5.8 mph - N/A   Clear
5:15 PM 60.6 °F - 7.0 °F 12% 29.48 in 10.0 mi WNW 5.8 mph - N/A   Clear
5:35 PM 59.5 °F - 7.3 °F 13% 29.49 in 10.0 mi WNW 4.6 mph - N/A   Clear
6:15 PM 56.3 °F - 8.4 °F 15% 29.49 in 10.0 mi North 10.4 mph - N/A   Clear
6:35 PM 54.7 °F - 8.2 °F 16% 29.50 in 10.0 mi NNW 6.9 mph - N/A   Clear
6:55 PM 50.7 °F - 9.1 °F 19% 29.50 in 10.0 mi NNW 6.9 mph - N/A   Clear
7:15 PM 45.1 °F 39.9 °F 10.8 °F 25% 29.50 in 10.0 mi NNW 10.4 mph - N/A   Clear
7:35 PM 43.5 °F 38.9 °F 10.4 °F 26% 29.50 in 10.0 mi NNW 8.1 mph - N/A   Clear
7:55 PM 44.1 °F 38.6 °F 10.4 °F 25% 29.51 in 10.0 mi NNW 10.4 mph - N/A   Clear
8:15 PM 42.1 °F 37.7 °F 11.1 °F 28% 29.52 in 10.0 mi NNW 6.9 mph - N/A   Clear
8:35 PM 44.4 °F 40.5 °F 11.8 °F 27% 29.53 in 10.0 mi NNW 6.9 mph - N/A   Scattered Clouds
8:55 PM 44.2 °F 41.0 °F 11.7 °F 27% 29.54 in 10.0 mi NNW 5.8 mph - N/A   Scattered Clouds
9:15 PM 48.2 °F - 12.0 °F 23% 29.55 in 10.0 mi NNW 9.2 mph - N/A   Scattered Clouds
9:35 PM 46.6 °F - 12.2 °F 25% 29.55 in 10.0 mi North 4.6 mph - N/A   Scattered Clouds
9:55 PM 46.6 °F - 12.2 °F 25% 29.56 in 10.0 mi North 9.2 mph - N/A   Scattered Clouds
10:15 PM 47.3 °F - 12.2 °F 24% 29.56 in 10.0 mi NNW 17.3 mph 20.7 mph N/A   Mostly Cloudy
10:35 PM 50.0 °F - 10.2 °F 20% 29.56 in 10.0 mi North 19.6 mph - N/A   Mostly Cloudy